When you browse on this site, cookies collect data to enhance your experience and personalize the content and advertising you see.
Visit our Privacy Policy to learn more. By continuing to use the site, you agree to this use of cookies and data.
  • In Portugal
  • List of Countries
  • For 7 days
  • Water Temperature
  • Satellite Maps
  • Weather Map
  • Weather Widgets
  • user-avatar
    Login

    Hourly Weather Podwojponie

    Today, 25 May, Saturday

    Time Temperature Precipitation Wind Pressure Humidity
    00:00 +10°C° 0 mm 2 mps 740 mmHg 81%
    01:00 +9°C° 0 mm 2 mps 740 mmHg 79%
    02:00 +10°C° 0 mm 1 mps 740 mmHg 80%
    03:00 +10°C° 0 mm 1 mps 740 mmHg 79%
    04:00 +9°C° 0 mm 2 mps 739 mmHg 79%
    05:00 +9°C° 0 mm 2 mps 739 mmHg 78%
    06:00 +12°C° 0 mm 2 mps 739 mmHg 76%
    07:00 +13°C° 0 mm 3 mps 739 mmHg 74%
    08:00 +15°C° 0 mm 4 mps 739 mmHg 71%
    09:00 +17°C° 0.1 mm 4 mps 739 mmHg 68%
    10:00 +17°C° 0.1 mm 5 mps 740 mmHg 65%
    11:00 +19°C° 0.1 mm 5 mps 740 mmHg 62%
    12:00 +19°C° 0.4 mm 5 mps 739 mmHg 67%
    13:00 +17°C° 0.4 mm 5 mps 739 mmHg 71%
    14:00 +17°C° 0.4 mm 5 mps 739 mmHg 76%
    15:00 +16°C° 0 mm 5 mps 739 mmHg 75%
    16:00 +16°C° 0 mm 5 mps 739 mmHg 73%
    17:00 +15°C° 0 mm 6 mps 739 mmHg 72%
    18:00 +14°C° 0 mm 5 mps 739 mmHg 76%
    19:00 +12°C° 0 mm 4 mps 739 mmHg 80%
    20:00 +11°C° 0 mm 3 mps 739 mmHg 84%
    21:00 +10°C° 0 mm 3 mps 740 mmHg 88%
    22:00 +8°C° 0 mm 3 mps 740 mmHg 92%
    23:00 +7°C° 0 mm 3 mps 740 mmHg 95%

    Tomorrow, 26 May, Sunday

    Time Temperature Precipitation Wind Pressure Humidity
    00:00 +7°C° 0 mm 3 mps 740 mmHg 96%
    01:00 +6°C° 0 mm 2 mps 740 mmHg 96%
    02:00 +6°C° 0 mm 2 mps 740 mmHg 97%
    03:00 +6°C° 0 mm 2 mps 740 mmHg 97%
    04:00 +5°C° 0 mm 3 mps 740 mmHg 97%
    05:00 +5°C° 0 mm 3 mps 740 mmHg 97%
    06:00 +8°C° 0 mm 3 mps 740 mmHg 91%
    07:00 +8°C° 0 mm 4 mps 740 mmHg 84%
    08:00 +10°C° 0 mm 5 mps 740 mmHg 78%
    09:00 +12°C° 0 mm 5 mps 740 mmHg 78%
    10:00 +12°C° 0 mm 5 mps 740 mmHg 78%
    11:00 +13°C° 0 mm 5 mps 740 mmHg 78%
    12:00 +13°C° 0.1 mm 5 mps 740 mmHg 77%
    13:00 +13°C° 0.1 mm 5 mps 739 mmHg 77%
    14:00 +13°C° 0.1 mm 5 mps 739 mmHg 77%
    15:00 +13°C° 0.1 mm 5 mps 739 mmHg 76%
    16:00 +13°C° 0.1 mm 5 mps 739 mmHg 76%
    17:00 +13°C° 0.1 mm 5 mps 739 mmHg 75%
    18:00 +13°C° 0 mm 5 mps 739 mmHg 78%
    19:00 +12°C° 0 mm 4 mps 739 mmHg 81%
    20:00 +12°C° 0 mm 3 mps 738 mmHg 83%
    21:00 +11°C° 0 mm 3 mps 738 mmHg 86%
    22:00 +11°C° 0 mm 3 mps 738 mmHg 88%
    23:00 +10°C° 0 mm 4 mps 738 mmHg 90%

    Day after tomorrow, 27 May, Monday

    Time Temperature Precipitation Wind Pressure Humidity
    00:00 +11°C° 0 mm 4 mps 738 mmHg 88%
    01:00 +11°C° 0 mm 4 mps 738 mmHg 85%
    02:00 +12°C° 0 mm 4 mps 738 mmHg 83%
    03:00 +12°C° 0 mm 4 mps 738 mmHg 85%
    04:00 +12°C° 0 mm 4 mps 738 mmHg 87%
    05:00 +12°C° 0 mm 4 mps 738 mmHg 89%
    06:00 +13°C° 0 mm 4 mps 738 mmHg 86%
    07:00 +14°C° 0 mm 5 mps 738 mmHg 83%
    08:00 +15°C° 0 mm 5 mps 738 mmHg 80%
    09:00 +16°C° 0.1 mm 5 mps 738 mmHg 79%
    10:00 +17°C° 0.1 mm 6 mps 738 mmHg 78%
    11:00 +17°C° 0.1 mm 7 mps 738 mmHg 77%
    12:00 +18°C° 0.5 mm 7 mps 737 mmHg 78%
    13:00 +19°C° 0.5 mm 6 mps 737 mmHg 79%
    14:00 +19°C° 0.5 mm 6 mps 737 mmHg 80%
    15:00 +19°C° 1.1 mm 6 mps 737 mmHg 82%
    16:00 +19°C° 1.1 mm 5 mps 737 mmHg 84%
    17:00 +19°C° 1.1 mm 5 mps 737 mmHg 86%
    18:00 +18°C° 0.8 mm 4 mps 738 mmHg 89%
    19:00 +17°C° 0.8 mm 3 mps 738 mmHg 92%
    20:00 +16°C° 0.8 mm 2 mps 738 mmHg 95%
    21:00 +15°C° 0 mm 2 mps 738 mmHg 96%
    22:00 +14°C° 0 mm 2 mps 739 mmHg 96%
    23:00 +14°C° 0 mm 2 mps 739 mmHg 97%

    28 May, Tuesday

    Time Temperature Precipitation Wind Pressure Humidity
    00:00 +13°C° 0 mm 2 mps 739 mmHg 96%
    01:00 +13°C° 0 mm 1 mps 739 mmHg 95%
    02:00 +12°C° 0 mm 1 mps 740 mmHg 94%
    03:00 +12°C° 0 mm 1 mps 740 mmHg 93%
    04:00 +12°C° 0 mm 1 mps 740 mmHg 92%
    05:00 +12°C° 0 mm 1 mps 740 mmHg 91%
    06:00 +13°C° 0 mm 1 mps 740 mmHg 90%
    07:00 +13°C° 0 mm 2 mps 740 mmHg 88%
    08:00 +14°C° 0 mm 2 mps 740 mmHg 87%
    09:00 +14°C° 1.3 mm 2 mps 739 mmHg 89%
    10:00 +13°C° 1.3 mm 3 mps 739 mmHg 92%
    11:00 +14°C° 1.3 mm 3 mps 739 mmHg 94%
    12:00 +14°C° 1.7 mm 3 mps 738 mmHg 95%
    13:00 +14°C° 1.7 mm 3 mps 738 mmHg 96%
    14:00 +14°C° 1.7 mm 3 mps 737 mmHg 97%
    15:00 +16°C° 0.1 mm 3 mps 737 mmHg 96%
    16:00 +16°C° 0.1 mm 3 mps 737 mmHg 95%
    17:00 +17°C° 0.1 mm 3 mps 736 mmHg 94%
    18:00 +16°C° 0 mm 3 mps 736 mmHg 95%
    19:00 +16°C° 0 mm 3 mps 736 mmHg 96%
    20:00 +16°C° 0 mm 3 mps 736 mmHg 97%
    21:00 +14°C° 0.1 mm 3 mps 736 mmHg 98%
    22:00 +14°C° 0.1 mm 3 mps 736 mmHg 98%
    23:00 +14°C° 0.1 mm 3 mps 736 mmHg 98%

    29 May, Wednesday

    Time Temperature Precipitation Wind Pressure Humidity
    00:00 +15°C° 0.3 mm 2 mps 736 mmHg 98%
    01:00 +14°C° 0.3 mm 2 mps 736 mmHg 98%
    02:00 +14°C° 0.3 mm 2 mps 736 mmHg 99%
    03:00 +15°C° 0.2 mm 2 mps 735 mmHg 98%
    04:00 +15°C° 0.2 mm 2 mps 735 mmHg 98%
    05:00 +15°C° 0.2 mm 2 mps 735 mmHg 98%
    06:00 +15°C° 0 mm 2 mps 735 mmHg 98%
    07:00 +15°C° 0 mm 2 mps 736 mmHg 97%
    08:00 +14°C° 0 mm 3 mps 736 mmHg 96%
    09:00 +14°C° 0.7 mm 3 mps 736 mmHg 96%
    10:00 +14°C° 0.7 mm 3 mps 736 mmHg 95%
    11:00 +14°C° 0.7 mm 4 mps 737 mmHg 94%
    12:00 +14°C° 0.7 mm 4 mps 737 mmHg 94%
    13:00 +14°C° 0.7 mm 5 mps 737 mmHg 94%
    14:00 +14°C° 0.7 mm 6 mps 738 mmHg 94%
    15:00 +13°C° 0.7 mm 6 mps 738 mmHg 94%
    16:00 +11°C° 0.7 mm 6 mps 738 mmHg 95%
    17:00 +10°C° 0.7 mm 7 mps 739 mmHg 95%
    18:00 +10°C° 0.8 mm 7 mps 739 mmHg 95%
    19:00 +9°C° 0.8 mm 7 mps 740 mmHg 95%
    20:00 +9°C° 0.8 mm 7 mps 741 mmHg 95%
    21:00 +8°C° 0.3 mm 6 mps 741 mmHg 94%
    22:00 +8°C° 0.3 mm 6 mps 742 mmHg 93%
    23:00 +7°C° 0.3 mm 5 mps 743 mmHg 92%

    30 May, Thursday

    Time Temperature Precipitation Wind Pressure Humidity
    00:00 +6°C° 0 mm 5 mps 743 mmHg 91%
    01:00 +6°C° 0 mm 5 mps 744 mmHg 90%
    02:00 +6°C° 0 mm 4 mps 744 mmHg 89%
    03:00 +5°C° 0 mm 4 mps 744 mmHg 90%
    04:00 +4°C° 0 mm 3 mps 745 mmHg 90%
    05:00 +4°C° 0 mm 3 mps 745 mmHg 90%
    06:00 +5°C° 0 mm 3 mps 746 mmHg 84%
    07:00 +8°C° 0 mm 3 mps 746 mmHg 79%
    08:00 +10°C° 0 mm 3 mps 747 mmHg 74%
    09:00 +11°C° 0 mm 3 mps 747 mmHg 67%
    10:00 +13°C° 0 mm 3 mps 747 mmHg 60%
    11:00 +14°C° 0 mm 3 mps 748 mmHg 53%
    12:00 +16°C° 0 mm 3 mps 748 mmHg 53%
    13:00 +16°C° 0 mm 3 mps 748 mmHg 52%
    14:00 +17°C° 0 mm 3 mps 748 mmHg 52%
    15:00 +17°C° 0 mm 2 mps 748 mmHg 52%
    16:00 +17°C° 0 mm 2 mps 748 mmHg 53%
    17:00 +17°C° 0 mm 2 mps 748 mmHg 53%
    18:00 +16°C° 0 mm 1 mps 748 mmHg 59%
    19:00 +14°C° 0 mm 1 mps 748 mmHg 65%
    20:00 +13°C° 0 mm 1 mps 748 mmHg 71%
    21:00 +12°C° 0 mm 1 mps 748 mmHg 73%
    22:00 +11°C° 0 mm 1 mps 748 mmHg 74%
    23:00 +10°C° 0 mm 1 mps 748 mmHg 76%
    Show more